This demonstration page uses our WeatherBlox Daily Observations layout. Learn more.

Left ArrowRight Arrow

39.12711, -84.51439

Hourly Observations for July 7, 2020

Temp ( °F °C ) Dew Point ( °F °C ) Humidity (%) Winds ( mph kmh ) Pressure ( in mb ) Visibility ( mi km ) Precip ( " mm )
12:53 am 00:53 Clear with Mist and Fog 71 21.7 69 20.6 94 94 NE 6 9 30.01 1016 6 10 0.00 0.00
1:53 am 01:53 Clear 71 21.7 69 20.6 94 94 Calm 30.01 1016 7 11 0.00 0.00
2:53 am 02:53 Clear with Mist and Fog 70 21.1 69 20.6 97 97 Calm 30.00 1016 4 6 0.00 0.00
3:05 am 03:05 Mostly Clear with Mist and Fog 70 21.1 69 20.6 97 97 Calm 30.00 1016 1 2 0.00 0.00
3:07 am 03:07 Mostly Cloudy with Mist and Fog 70 21.1 69 20.6 97 97 Calm 30.01 1016 1 1 0.00 0.00
3:27 am 03:27 Partly Cloudy with Mist and Fog 69 20.6 69 20.6 100 100 SE 3 6 30.00 1016 2 2 0.00 0.00
3:29 am 03:29 Partly Cloudy with Mist and Fog 69 20.6 68 20 96 96 Calm 30.00 1016 3 5 0.00 0.00
3:53 am 03:53 Clear with Mist and Fog 68 20 67 19.4 96 96 S 6 9 30.00 1016 3 4 0.00 0.00
3:57 am 03:57 Mostly Clear with Mist and Fog 68 20 67 19.4 96 96 S 3 6 30.00 1016 3 5 0.00 0.00
4:53 am 04:53 Clear with Mist and Fog 70 21.1 68 20 93 93 Calm 29.99 1016 6 10 0.00 0.00
5:53 am 05:53 Clear with Mist and Fog 69 20.6 68 20 96 96 Calm 29.98 1015 4 6 0.00 0.00
6:00 am 06:00 Clear with Mist and Fog 69 20.6 68 20 96 96 NE 3 6 29.99 1015 2 3 0.00 0.00
6:09 am 06:09 Clear with Mist and Fog 70 21.1 68 20 93 93 Calm 29.99 1015 4 6 0.00 0.00
6:35 am 06:35 Sunny with Mist and Fog 69 20.6 68 20 96 96 Calm 30.00 1016 2 3 0.00 0.00
6:47 am 06:47 Partly Cloudy with Mist and Fog 70 21 68 20 94 94 Calm 30.00 1016 6 10 0.00 0.00
6:48 am 06:48 Partly Cloudy with Mist and Fog 69 20.6 68 20 96 96 Calm 30.00 1016 6 10 0.00 0.00
7:53 am 07:53 Partly Cloudy with Mist and Fog 72 22.2 70 21.1 94 94 Calm 30.01 1016 6 10 0.00 0.00
8:53 am 08:53 Sunny 75 23.9 69 20.6 82 82 SSW 5 7 30.01 1016 10 16 0.00 0.00
9:53 am 09:53 Sunny 79 26.1 72 22.2 79 79 Calm 30.02 1017 10 16 0.00 0.00
10:53 am 10:53 Sunny 83 28.3 69 20.6 63 63 Calm 30.02 1017 10 16 0.00 0.00
11:53 am 11:53 Sunny 84 28.9 71 21.7 65 65 Calm 30.02 1017 10 16 0.00 0.00
12:53 pm 12:53 Sunny 86 30 70 21.1 59 59 Calm 30.01 1016 10 16 0.00 0.00
1:53 pm 13:53 Sunny 88 31.1 72 22.2 59 59 S 8 13 29.98 1015 10 16 0.00 0.00
2:53 pm 14:53 Partly Cloudy 89 31.7 73 22.8 59 59 SSW 3 6 29.97 1015 10 16 0.00 0.00
3:53 pm 15:53 Mostly Cloudy 88 31.1 69 20.6 54 54 NNW 10 17 29.95 1014 10 16 0.00 0.00
4:04 pm 16:04 Mostly Cloudy with Thunderstorms 88 31.1 69 20.6 54 54 N 14 22 29.93 1014 10 16 0.00 0.00
4:28 pm 16:28 Mostly Cloudy with Nearby Thunderstorms 88 31.1 70 21.1 55 55 NE 9 15 29.93 1014 10 16 0.00 0.00
4:39 pm 16:39 Mostly Cloudy 87 30.6 71 21.7 59 59 ENE 12 19 29.93 1014 10 16 0.00 0.00
4:53 pm 16:53 Mostly Cloudy 87 30.6 69 20.6 55 55 NE 5 7 29.94 1014 10 16 0.00 0.00
5:15 pm 17:15 Sunny with Nearby Thunderstorms 89 31.7 71 21.7 55 55 ENE 8 13 29.92 1013 10 16 0.00 0.00
5:40 pm 17:40 Sunny 89 31.7 71 21.7 55 55 ENE 7 11 29.92 1013 10 16 0.00 0.00
5:53 pm 17:53 Sunny 89 31.7 71 21.7 55 55 E 9 15 29.93 1014 10 16 0.00 0.00
6:39 pm 18:39 Partly Cloudy with Nearby Thunderstorms 89 31.7 70 21.1 53 53 E 5 7 29.90 1012 10 16 0.00 0.00
6:53 pm 18:53 Partly Cloudy with Nearby Thunderstorms 88 31.1 72 22.2 59 59 NE 5 7 29.92 1013 10 16 0.00 0.00
7:11 pm 19:11 Mostly Sunny 84 28.9 73 22.8 70 70 Calm 29.90 1013 10 16 0.00 0.00
7:53 pm 19:53 Sunny 83 28.3 71 21.7 67 67 NE 5 7 29.93 1014 10 16 0.00 0.00
8:53 pm 20:53 Sunny 81 27.2 70 21.1 69 69 E 3 6 29.94 1014 10 16 0.00 0.00
9:53 pm 21:53 Clear 79 26.1 70 21.1 74 74 N 3 6 29.94 1014 10 16 0.00 0.00
10:53 pm 22:53 Clear 75 23.9 70 21.1 84 84 Calm 29.97 1015 10 16 0.00 0.00
11:53 pm 23:53 Clear 73 22.8 70 21.1 90 90 Calm 29.98 1015 10 16 0.00 0.00

Powered by AerisWeather